Location: Unspecified
(0.0000°N, 0.0000°E)
Time: 12:10:43
(UTC+01:00)

Ariane H10 - Visible Passes

Search period start: 24 January 2017 00:00
Search period end: 03 February 2017 00:00
Orbit: 473 x 34781 km, 7.1° (Epoch: 21 January)

Date Brightness Start Highest point End Pass type
(mag) Time Alt. Az. Time Alt. Az. Time Alt. Az.
24 Jan 11.6 00:14:06 10° W 00:31:32 10° W 00:51:01 10° W visible
24 Jan 7.7 19:05:27 10° W 20:53:24 68° W 04:43:17 10° E visible
25 Jan 8.0 15:23:21 10° WNW 23:01:06 82° SE 01:03:56 10° E visible
26 Jan 9.8 16:40:26 10° E 19:32:18 24° E 20:55:17 10° E visible
27 Jan 7.6 19:04:38 10° W 20:52:11 67° W 04:42:02 10° E visible
28 Jan 8.0 15:22:08 10° WNW 22:53:49 82° SSE 01:02:56 10° E visible
29 Jan 9.7 16:26:32 10° E 19:30:53 26° E 20:56:28 10° E visible
30 Jan 7.6 19:03:48 10° W 20:50:59 65° W 04:40:46 10° E visible
31 Jan 8.1 15:20:53 10° WNW 22:42:32 83° SSE 01:01:53 10° E visible
01 Feb 9.6 16:12:42 10° E 19:29:27 27° E 20:57:24 10° E visible
